CW4167 Weather Reports


time (UTC)temp
F
wind
direction
speed
knots
gust
knots
rain 1hr
in
rain 24hr
in
rain mn
in
humidity
%
barometer
mb
20260507074205 54 16 3.5 4.3 0.00 0.00 0.00 60 1013.8
20260507073205 53 0 1.7 5.2 0.00 0.00 0.00 62 1013.8
20260507071706 52 356 3.5 5.2 0.00 0.00 0.00 61 1013.7
20260507070205 52 348 1.7 4.3 0.00 0.00 0.00 67 1013.6
20260507065706 51 344 3.5 4.3 0.00 0.00 0.00 68 1013.6
20260507064205 50 356 4.3 4.3 0.00 0.00 0.00 72 1013.4
20260507063706 50 352 5.2 6.1 0.00 0.00 0.00 72 1013.4
20260507062706 50 354 2.6 5.2 0.00 0.00 0.00 74 1013.4
20260507062205 49 352 2.6 4.3 0.00 0.00 0.00 74 1013.4
20260507061705 50 344 1.7 2.6 0.00 0.00 0.00 76 1013.4
20260507061206 49 333 2.6 2.6 0.00 0.00 0.00 78 1013.4
20260507053705 45 195 0.0 1.7 0.00 0.00 0.00 90 1013.2
20260507053205 44 185 0.0 0.9 0.00 0.00 0.00 90 1013.2
20260507052205 42 154 1.7 1.7 0.00 0.00 0.00 90 1013.2
20260507051205 40 143 0.0 0.0 0.00 0.00 0.00 89 1013.1
20260507050706 40 143 0.0 0.0 0.00 0.00 0.00 89 1012.9
20260507050205 40 143 0.0 0.0 0.00 0.00 0.00 89 1012.9
20260507043705 39 143 0.0 0.0 0.00 0.00 0.00 90 1012.7
20260507042205 36 143 0.0 0.0 0.00 0.00 0.00 89 1012.7
20260507041706 35 143 0.0 0.0 0.00 0.00 0.00 89 1012.7
20260507040705 35 143 0.0 0.0 0.00 0.00 0.00 88 1012.7
20260507040205 35 143 0.0 0.9 0.00 0.00 0.00 88 1012.7
20260507034705 34 143 0.0 0.9 0.00 0.00 0.00 88 1012.5
20260507033705 34 143 0.0 0.0 0.00 0.00 0.00 88 1012.4
20260507033205 34 143 0.0 0.0 0.00 0.00 0.00 88 1012.5
20260507032705 34 143 0.0 0.0 0.00 0.00 0.00 88 1012.5
20260507031205 34 143 0.0 0.9 0.00 0.00 0.00 87 1012.4
20260507030705 34 143 0.0 0.0 0.00 0.00 0.00 87 1012.4
20260507025705 35 143 0.0 0.0 0.00 0.00 0.00 87 1012.3
20260507023705 35 143 0.0 0.0 0.00 0.00 0.00 87 1012.2
20260507023205 35 143 0.0 0.0 0.00 0.00 0.00 87 1012.2
20260507021706 35 143 0.0 0.0 0.00 0.00 0.00 87 1012.0
20260507020707 35 143 0.0 0.0 0.00 0.00 0.00 87 1012.0
20260507015706 35 143 0.0 0.0 0.00 0.00 0.00 87 1012.0
20260507013706 35 143 0.0 0.0 0.00 0.00 0.00 87 1011.8
20260507013205 35 143 0.0 0.0 0.00 0.00 0.00 87 1011.8
20260507012705 35 143 0.0 0.0 0.00 0.00 0.00 86 1011.7
20260507005705 36 143 0.0 0.0 0.00 0.00 0.00 85 1011.8
20260507003206 37 148 0.0 1.7 0.00 0.00 0.00 85 1011.7
20260507002705 37 149 0.0 1.7 0.00 0.00 0.00 85 1011.7
20260507000705 37 157 4.3 4.3 0.00 0.00 0.00 85 1011.7
20260507000207 38 157 2.6 2.6 0.00 0.00 0.00 85 1011.6
20260506235205 38 157 1.7 1.7 0.00 0.00 0.00 85 1011.6
20260506233205 38 157 2.6 2.6 0.00 0.00 0.00 84 1011.4
20260506232705 38 157 2.6 2.6 0.00 0.00 0.00 84 1011.4
20260506231705 39 157 0.9 1.7 0.00 0.00 0.00 84 1011.5
20260506231206 39 157 1.7 1.7 0.00 0.00 0.00 83 1011.5
20260506230205 39 157 0.0 0.0 0.00 0.00 0.00 83 1011.5
20260506225704 39 157 0.9 1.7 0.00 0.00 0.00 83 1011.6
20260506225205 40 157 1.7 1.7 0.00 0.00 0.00 83 1011.5
20260506222706 40 157 0.0 0.0 0.00 0.00 0.00 83 1011.4
20260506221205 41 157 1.7 1.7 0.00 0.00 0.00 82 1011.3
20260506220705 41 157 0.0 0.9 0.00 0.00 0.00 83 1011.3
20260506220205 41 157 0.0 0.9 0.00 0.00 0.00 82 1011.2
20260506215705 41 157 1.7 2.6 0.00 0.00 0.00 82 1011.1
20260506214207 41 161 1.7 2.6 0.00 0.00 0.00 82 1011.1
20260506211704 42 143 4.3 5.2 0.00 0.00 0.00 80 1011.0
20260506205205 42 139 3.5 5.2 0.00 0.00 0.00 77 1010.8
20260506204705 42 134 2.6 4.3 0.00 0.00 0.00 77 1010.7
20260506204205 42 135 2.6 4.3 0.00 0.00 0.00 76 1010.8
20260506203205 43 130 1.7 2.6 0.00 0.00 0.00 75 1010.8
20260506202205 43 130 2.6 4.3 0.00 0.00 0.00 74 1010.8
20260506201706 43 129 2.6 4.3 0.00 0.00 0.00 73 1010.6
20260506201205 44 136 2.6 4.3 0.00 0.00 0.00 72 1010.6
20260506200205 44 138 2.6 2.6 0.00 0.00 0.00 71 1010.6
20260506194704 45 139 2.6 2.6 0.00 0.00 0.00 69 1010.4
20260506194205 46 139 1.7 2.6 0.00 0.00 0.00 68 1010.4
20260506193705 46 139 4.3 4.3 0.00 0.00 0.00 68 1010.4
20260506192706 47 139 2.6 2.6 0.00 0.00 0.00 66 1010.4
20260506192205 47 139 2.6 4.3 0.00 0.00 0.00 66 1010.4
20260506191704 47 140 3.5 5.2 0.00 0.00 0.00 65 1010.3
20260506191204 48 131 4.3 5.2 0.00 0.00 0.00 64 1010.3
20260506190705 48 128 3.5 5.2 0.00 0.00 0.00 63 1010.1
20260506185704 49 125 3.5 5.2 0.00 0.00 0.00 62 1010.1
20260506183704 49 126 5.2 7.0 0.00 0.00 0.00 59 1009.9
20260506182704 50 121 6.1 8.7 0.00 0.00 0.00 58 1009.9
20260506182204 50 119 6.1 7.0 0.00 0.00 0.00 57 1009.8
20260506181204 51 126 7.0 11.3 0.00 0.00 0.00 56 1009.6
20260506175205 51 124 8.7 11.3 0.00 0.00 0.00 53 1009.5
20260506173205 53 123 8.7 12.2 0.00 0.00 0.00 50 1009.4
20260506170706 54 127 6.1 11.3 0.00 0.00 0.00 48 1009.1
20260506170204 54 117 8.7 13.0 0.00 0.00 0.00 47 1009.2
20260506165706 54 98 9.6 12.2 0.00 0.00 0.00 47 1009.1
20260506164708 54 106 10.4 14.8 0.00 0.00 0.00 46 1009.2
20260506164205 54 137 9.6 15.6 0.00 0.00 0.00 45 1009.2
20260506163705 54 115 11.3 14.8 0.00 0.00 0.00 45 1009.2
20260506162704 54 111 12.2 14.8 0.00 0.00 0.00 44 1009.1
20260506161708 54 121 13.9 15.6 0.00 0.00 0.00 45 1009.0
20260506161204 54 130 7.8 15.6 0.00 0.00 0.00 46 1009.1
20260506160204 54 131 10.4 14.8 0.00 0.00 0.00 46 1009.1
20260506155204 54 111 6.1 13.0 0.00 0.00 0.00 47 1009.0
20260506154704 54 115 8.7 12.2 0.00 0.00 0.00 46 1009.0
20260506152205 54 115 9.6 12.2 0.00 0.00 0.00 47 1009.1
20260506151704 54 117 7.0 11.3 0.00 0.00 0.00 48 1009.1
20260506151204 54 131 8.7 13.0 0.00 0.00 0.00 48 1009.1
20260506150204 54 123 8.7 13.0 0.00 0.00 0.00 47 1009.0
20260506145706 54 115 12.2 17.4 0.00 0.00 0.00 47 1009.0
20260506145204 54 123 11.3 15.6 0.00 0.00 0.00 48 1009.0
20260506143204 54 121 8.7 17.4 0.00 0.00 0.00 56 1008.8
20260506142204 55 101 12.2 15.6 0.00 0.00 0.00 60 1008.8
20260506140704 54 161 5.2 7.8 0.00 0.00 0.00 62 1008.8
20260506135204 54 7 10.4 13.9 0.00 0.00 0.00 62 1008.4
20260506134706 55 353 8.7 14.8 0.00 0.00 0.00 61 1008.4
20260506133704 56 8 7.8 12.2 0.00 0.00 0.00 60 1008.4
20260506133205 56 7 10.4 15.6 0.00 0.00 0.00 61 1008.4
20260506132704 56 349 12.2 15.6 0.00 0.00 0.00 62 1008.4
20260506132204 55 339 13.0 15.6 0.00 0.00 0.00 61 1008.3
20260506131704 55 337 9.6 15.6 0.00 0.00 0.00 62 1008.3
20260506131204 55 355 11.3 15.6 0.00 0.00 0.00 61 1008.3
20260506125204 57 337 11.3 17.4 0.00 0.00 0.00 59 1008.2
20260506124704 57 344 12.2 20.9 0.00 0.00 0.00 59 1008.1
20260506124204 57 334 12.2 15.6 0.00 0.00 0.00 61 1008.1
20260506123704 56 349 15.6 20.9 0.00 0.00 0.00 58 1008.2
20260506121204 57 329 11.3 20.0 0.00 0.00 0.00 58 1008.1
20260506115706 57 324 14.8 18.2 0.00 0.00 0.00 58 1008.1
20260506114705 57 335 12.2 19.1 0.00 0.00 0.00 58 1008.1
20260506114206 57 337 15.6 20.0 0.00 0.00 0.00 58 1008.1
20260506112206 57 335 14.8 19.1 0.00 0.00 0.00 59 1008.1
20260506111205 57 335 11.3 17.4 0.00 0.00 0.00 55 1008.2
20260506105207 57 337 12.2 20.0 0.00 0.00 0.00 54 1008.2
20260506104706 56 340 12.2 18.2 0.00 0.00 0.00 55 1008.2
20260506104205 56 342 10.4 17.4 0.00 0.00 0.00 56 1008.3
20260506103707 56 339 13.9 17.4 0.00 0.00 0.00 55 1008.3
20260506103206 56 342 12.2 17.4 0.00 0.00 0.00 55 1008.3
20260506102206 56 339 12.2 15.6 0.00 0.00 0.00 57 1008.3
20260506100706 56 335 8.7 17.4 0.00 0.00 0.00 57 1008.2
20260506100206 56 327 8.7 15.6 0.00 0.00 0.00 56 1008.3
20260506095206 57 346 13.9 15.6 0.00 0.00 0.00 54 1008.3
20260506094706 56 333 10.4 13.9 0.00 0.00 0.00 56 1008.3
20260506094207 56 344 11.3 13.9 0.00 0.00 0.00 54 1008.3
20260506093206 57 322 11.3 17.4 0.00 0.00 0.00 52 1008.3
20260506092707 57 329 10.4 13.9 0.00 0.00 0.00 49 1008.3
20260506092206 56 347 13.9 14.8 0.00 0.00 0.00 47 1008.3
20260506091705 56 326 10.4 13.0 0.00 0.00 0.00 50 1008.3
20260506091206 56 340 8.7 13.9 0.00 0.00 0.00 47 1008.3
20260506085705 56 4 10.4 13.0 0.00 0.00 0.00 46 1008.4
20260506085206 56 330 7.0 13.9 0.00 0.00 0.00 48 1008.4
20260506084205 56 0 8.7 12.2 0.00 0.00 0.00 44 1008.4
20260506083706 56 3 11.3 13.0 0.00 0.00 0.00 43 1008.4
20260506083205 56 29 7.0 12.2 0.00 0.00 0.00 46 1008.4
20260506082707 56 6 5.2 7.0 0.00 0.00 0.00 46 1008.4
20260506082205 55 354 5.2 11.3 0.00 0.00 0.00 46 1008.3
20260506081705 56 349 10.4 13.0 0.00 0.00 0.00 46 1008.3
20260506081205 56 352 7.8 12.2 0.00 0.00 0.00 49 1008.3
20260506080706 55 356 6.1 12.2 0.00 0.00 0.00 47 1008.3